Flag for Germany Weather past 2 weeks in Gera, Thuringia, Germany

Now
65 °F

Passing clouds.


Feels Like: 65 °F
Forecast: 60 / 77 °F
Wind: 3 mph from Northeast

Location: Gera-Leumnitz

Current Time: Jul 23, 2014 at 4:04:31 AM

Latest Report: Jul 23, 2014 at 3:00 AM


Visibility: 19 mi

Pressure: 30.04 "Hg

Humidity: 78%

Dew point: 58 °F

Location of GeraLocation

Historic Weather in Gera — Graph

°F

Gera temperature yesterday

Maximum temperature yesterday: 81 °F (at 5:00 PM)
Minimum temperature yesterday: 63 °F (at 6:00 AM)
Average temperature yesterday: 72 °F

Past Weeks' High & Low Weather Summary

 TemperatureHumidityPressure
High90 °F (Jul 20, 2:00 PM)99% (Jul 11, 5:00 AM)30.19 "Hg (Jul 11, 5:00 AM)
Low51 °F (Jul 13, 5:00 AM)25% (Jul 20, 6:00 PM)29.64 "Hg (Jul 9, 1:00 AM)
Average68 °F70%29.92 "Hg
* Reported Jul 8 3:00 AM — Jul 23 3:00 AM, Gera, Weather by CustomWeather, © 2014

Note: Actual official high and low records may vary slightly from our data, if they occured in-between our weather recording intervals... More about our weather records

Advertising

Gera weather history for previous 24 hours

 ConditionsComfort  
Time TempWeatherWind HumidityBarometerVisibility
3:00 AM
Jul 23
65 °FPassing clouds.3 mph78%30.04 "Hg19 mi
2:00 AM66 °FClear.3 mph75%30.04 "Hg22 mi
7:00 PM
Jul 22
80 °FPassing clouds.6 mph36%29.94 "Hg37 mi
6:00 PM80 °FPassing clouds.7 mph37%29.94 "Hg37 mi
5:00 PM81 °FPassing clouds.7 mph35%29.94 "Hg37 mi
4:00 PM80 °FScattered clouds.8 mph38%29.94 "Hg37 mi
3:00 PM79 °FPartly sunny.7 mph36%29.95 "Hg31 mi
2:00 PM79 °FPartly sunny.7 mph41%29.95 "Hg31 mi
1:00 PM80 °FPartly sunny.6 mph38%29.94 "Hg16 mi
12:00 PM79 °FScattered clouds.6 mph45%29.94 "Hg16 mi
11:00 AM74 °FScattered clouds.6 mph61%29.95 "Hg16 mi
10:00 AM71 °FPartly sunny.5 mph68%29.95 "Hg14 mi
9:00 AM67 °FPartly sunny.6 mph77%29.94 "Hg14 mi
8:00 AM64 °FOvercast.3 mph85%29.94 "Hg12 mi
7:00 AM63 °FOvercast.3 mph89%29.93 "Hg11 mi
6:00 AM63 °FOvercast.3 mph90%29.91 "Hg11 mi
5:00 AM65 °FOvercast.5 mph85%29.88 "Hg11 mi
4:00 AM66 °FOvercast.5 mph89%29.87 "Hg5 mi
Weather by CustomWeather, © 2014

See weather overviewHow to use our weather pages